When you browse on this site, cookies collect data to enhance your experience and personalize the content and advertising you see.
Visit our Privacy Policy to learn more. By continuing to use the site, you agree to this use of cookies and data.

Hourly Weather Buenos Aires

Today, 6 July, Monday

Time Temperature Precipitation Wind Pressure Humidity
00:00 +25°C° 0.1 mm 1 mps 715 mmHg 84%
01:00 +24°C° 0.1 mm 1 mps 715 mmHg 84%
02:00 +22°C° 0.1 mm 0 mps 715 mmHg 85%
03:00 +22°C° 0 mm 0 mps 715 mmHg 85%
04:00 +22°C° 0 mm 0 mps 715 mmHg 86%
05:00 +21°C° 0 mm 0 mps 715 mmHg 87%
06:00 +23°C° 0 mm 0 mps 715 mmHg 81%
07:00 +25°C° 0 mm 0 mps 716 mmHg 75%
08:00 +27°C° 0 mm 0 mps 716 mmHg 69%
09:00 +29°C° 0 mm 0 mps 716 mmHg 62%
10:00 +32°C° 0 mm 1 mps 716 mmHg 56%
11:00 +34°C° 0 mm 1 mps 716 mmHg 49%
12:00 +35°C° 0.1 mm 1 mps 716 mmHg 47%
13:00 +36°C° 0.1 mm 1 mps 715 mmHg 45%
14:00 +36°C° 0.1 mm 1 mps 715 mmHg 43%
15:00 +36°C° 0 mm 1 mps 714 mmHg 45%
16:00 +35°C° 0 mm 1 mps 714 mmHg 47%
17:00 +34°C° 0 mm 1 mps 713 mmHg 50%
18:00 +32°C° 0.1 mm 1 mps 714 mmHg 56%
19:00 +30°C° 0.1 mm 1 mps 715 mmHg 63%
20:00 +28°C° 0.1 mm 1 mps 715 mmHg 69%
21:00 +27°C° 0.9 mm 1 mps 716 mmHg 76%
22:00 +26°C° 0.9 mm 1 mps 716 mmHg 83%
23:00 +25°C° 0.9 mm 2 mps 716 mmHg 89%

Tomorrow, 7 July, Tuesday

Time Temperature Precipitation Wind Pressure Humidity
00:00 +24°C° 0.3 mm 1 mps 716 mmHg 89%
01:00 +24°C° 0.3 mm 1 mps 716 mmHg 89%
02:00 +24°C° 0.3 mm 1 mps 716 mmHg 89%
03:00 +24°C° 0 mm 1 mps 716 mmHg 88%
04:00 +24°C° 0 mm 1 mps 716 mmHg 87%
05:00 +24°C° 0 mm 1 mps 716 mmHg 87%
06:00 +25°C° 0 mm 1 mps 716 mmHg 83%
07:00 +26°C° 0 mm 1 mps 717 mmHg 79%
08:00 +28°C° 0 mm 1 mps 717 mmHg 75%
09:00 +30°C° 0 mm 1 mps 717 mmHg 68%
10:00 +31°C° 0 mm 1 mps 717 mmHg 61%
11:00 +33°C° 0 mm 1 mps 716 mmHg 54%
12:00 +34°C° 0.1 mm 1 mps 716 mmHg 51%
13:00 +35°C° 0.1 mm 1 mps 715 mmHg 49%
14:00 +35°C° 0.1 mm 1 mps 715 mmHg 47%
15:00 +34°C° 0.4 mm 1 mps 714 mmHg 51%
16:00 +33°C° 0.4 mm 1 mps 714 mmHg 55%
17:00 +32°C° 0.4 mm 1 mps 714 mmHg 58%
18:00 +30°C° 0.5 mm 1 mps 714 mmHg 67%
19:00 +28°C° 0.5 mm 1 mps 715 mmHg 75%
20:00 +26°C° 0.5 mm 1 mps 715 mmHg 83%
21:00 +25°C° 1.1 mm 1 mps 716 mmHg 86%
22:00 +25°C° 1.1 mm 1 mps 716 mmHg 89%
23:00 +25°C° 1.1 mm 1 mps 716 mmHg 92%

Day after tomorrow, 8 July, Wednesday

Time Temperature Precipitation Wind Pressure Humidity
00:00 +25°C° 1.1 mm 1 mps 716 mmHg 93%
01:00 +24°C° 1.1 mm 1 mps 716 mmHg 93%
02:00 +24°C° 1.1 mm 1 mps 716 mmHg 94%
03:00 +24°C° 0.4 mm 1 mps 716 mmHg 94%
04:00 +22°C° 0.4 mm 0 mps 716 mmHg 94%
05:00 +22°C° 0.4 mm 0 mps 715 mmHg 94%
06:00 +23°C° 0.5 mm 0 mps 716 mmHg 92%
07:00 +23°C° 0.5 mm 0 mps 716 mmHg 89%
08:00 +24°C° 0.5 mm 0 mps 717 mmHg 87%
09:00 +26°C° 1.2 mm 1 mps 717 mmHg 88%
10:00 +25°C° 1.2 mm 1 mps 717 mmHg 89%
11:00 +25°C° 1.2 mm 1 mps 717 mmHg 91%
12:00 +25°C° 0.5 mm 1 mps 716 mmHg 89%
13:00 +26°C° 0.5 mm 1 mps 716 mmHg 88%
14:00 +24°C° 0.5 mm 0 mps 716 mmHg 86%
15:00 +24°C° 0.2 mm 0 mps 716 mmHg 86%
16:00 +24°C° 0.2 mm 0 mps 715 mmHg 86%
17:00 +24°C° 0.2 mm 0 mps 715 mmHg 86%
18:00 +23°C° 0.2 mm 0 mps 716 mmHg 87%
19:00 +23°C° 0.2 mm 0 mps 716 mmHg 88%
20:00 +22°C° 0.2 mm 0 mps 717 mmHg 89%
21:00 +22°C° 0 mm 0 mps 717 mmHg 88%
22:00 +22°C° 0 mm 0 mps 717 mmHg 88%
23:00 +22°C° 0 mm 0 mps 717 mmHg 87%

9 July, Thursday

Time Temperature Precipitation Wind Pressure Humidity
00:00 +22°C° 0.1 mm 0 mps 717 mmHg 88%
01:00 +22°C° 0.1 mm 0 mps 717 mmHg 89%
02:00 +22°C° 0.1 mm 0 mps 716 mmHg 90%
03:00 +21°C° 0.1 mm 0 mps 716 mmHg 91%
04:00 +21°C° 0.1 mm 0 mps 716 mmHg 91%
05:00 +21°C° 0.1 mm 0 mps 716 mmHg 92%
06:00 +22°C° 0 mm 0 mps 716 mmHg 90%
07:00 +22°C° 0 mm 0 mps 716 mmHg 89%
08:00 +23°C° 0 mm 0 mps 717 mmHg 88%
09:00 +25°C° 0.1 mm 0 mps 717 mmHg 79%
10:00 +28°C° 0.1 mm 0 mps 717 mmHg 70%
11:00 +30°C° 0.1 mm 0 mps 717 mmHg 60%
12:00 +33°C° 0.2 mm 1 mps 717 mmHg 57%
13:00 +33°C° 0.2 mm 1 mps 716 mmHg 54%
14:00 +34°C° 0.2 mm 1 mps 716 mmHg 51%
15:00 +33°C° 0.2 mm 1 mps 715 mmHg 56%
16:00 +29°C° 0.2 mm 0 mps 715 mmHg 62%
17:00 +28°C° 0.2 mm 0 mps 715 mmHg 67%
18:00 +29°C° 0 mm 1 mps 715 mmHg 68%
19:00 +28°C° 0 mm 1 mps 716 mmHg 69%
20:00 +27°C° 0 mm 1 mps 716 mmHg 69%
21:00 +27°C° 0 mm 1 mps 717 mmHg 68%
22:00 +27°C° 0 mm 1 mps 717 mmHg 67%
23:00 +26°C° 0 mm 1 mps 717 mmHg 66%

10 July, Friday

Time Temperature Precipitation Wind Pressure Humidity
00:00 +26°C° 0 mm 1 mps 717 mmHg 66%
01:00 +25°C° 0 mm 1 mps 716 mmHg 67%
02:00 +23°C° 0 mm 0 mps 716 mmHg 67%
03:00 +25°C° 0 mm 1 mps 716 mmHg 66%
04:00 +25°C° 0 mm 1 mps 716 mmHg 65%
05:00 +25°C° 0 mm 1 mps 716 mmHg 65%
06:00 +26°C° 0 mm 1 mps 717 mmHg 63%
07:00 +28°C° 0 mm 1 mps 717 mmHg 60%
08:00 +29°C° 0 mm 1 mps 717 mmHg 58%
09:00 +31°C° 0 mm 1 mps 717 mmHg 55%
10:00 +32°C° 0 mm 1 mps 717 mmHg 52%
11:00 +34°C° 0 mm 1 mps 717 mmHg 49%
12:00 +35°C° 0 mm 1 mps 716 mmHg 47%
13:00 +35°C° 0 mm 1 mps 716 mmHg 45%
14:00 +36°C° 0 mm 1 mps 715 mmHg 42%
15:00 +35°C° 0.2 mm 1 mps 715 mmHg 46%
16:00 +35°C° 0.2 mm 1 mps 715 mmHg 49%
17:00 +32°C° 0.2 mm 0 mps 715 mmHg 53%
18:00 +32°C° 0 mm 1 mps 715 mmHg 57%
19:00 +30°C° 0 mm 1 mps 715 mmHg 62%
20:00 +28°C° 0 mm 1 mps 715 mmHg 66%
21:00 +27°C° 0 mm 1 mps 716 mmHg 67%
22:00 +27°C° 0 mm 1 mps 716 mmHg 69%
23:00 +26°C° 0 mm 1 mps 716 mmHg 70%

11 July, Saturday

Time Temperature Precipitation Wind Pressure Humidity
00:00 +26°C° 0 mm 1 mps 716 mmHg 72%
01:00 +25°C° 0 mm 1 mps 716 mmHg 74%
02:00 +25°C° 0 mm 1 mps 716 mmHg 76%
03:00 +25°C° 0 mm 1 mps 716 mmHg 77%
04:00 +24°C° 0 mm 1 mps 716 mmHg 78%
05:00 +24°C° 0 mm 1 mps 716 mmHg 79%
06:00 +26°C° 0 mm 1 mps 716 mmHg 74%
07:00 +28°C° 0 mm 1 mps 717 mmHg 70%
08:00 +29°C° 0 mm 1 mps 717 mmHg 65%
09:00 +31°C° 0 mm 1 mps 717 mmHg 60%
10:00 +33°C° 0 mm 1 mps 717 mmHg 55%
11:00 +35°C° 0 mm 1 mps 717 mmHg 49%
12:00 +36°C° 0.1 mm 1 mps 716 mmHg 47%
13:00 +37°C° 0.1 mm 1 mps 716 mmHg 45%
14:00 +37°C° 0.1 mm 1 mps 715 mmHg 43%
15:00 +36°C° 0.1 mm 1 mps 715 mmHg 46%
16:00 +36°C° 0.1 mm 1 mps 715 mmHg 49%
17:00 +35°C° 0.1 mm 1 mps 714 mmHg 53%
18:00 +33°C° 0 mm 1 mps 715 mmHg 57%
19:00 +31°C° 0 mm 1 mps 715 mmHg 62%
20:00 +29°C° 0 mm 1 mps 715 mmHg 67%
21:00 +28°C° 0.4 mm 1 mps 716 mmHg 71%
22:00 +27°C° 0.4 mm 1 mps 716 mmHg 76%
23:00 +26°C° 0.4 mm 1 mps 716 mmHg 80%
Show more